Time,TemperatureF,DewpointF,PressureIn,WindDirection,WindDirectionDegrees,WindSpeedMPH,WindSpeedGustMPH,Humidity,HourlyPrecipIn,Conditions,Clouds,dailyrainin,SoftwareType,DateUTC
2013-03-25 00:00:00,33.3,29.9,29.55,ESE,113,3.0,11.0,87,0.00,,,0.00,WeatherCatV1.10B1784,2013-03-25 04:00:00,
2013-03-25 00:01:00,33.3,29.9,29.55,ESE,114,5.0,5.0,87,0.00,,,0.00,WeatherCatV1.10B1784,2013-03-25 04:01:00,
2013-03-25 00:06:00,33.5,30.1,29.55,East,96,3.0,9.0,87,0.00,,,0.00,WeatherCatV1.10B1784,2013-03-25 04:06:00,
2013-03-25 00:11:00,33.6,29.9,29.55,ENE,58,6.0,11.0,86,0.00,,,0.00,WeatherCatV1.10B1784,2013-03-25 04:11:00,
2013-03-25 00:16:00,33.6,29.6,29.55,NE,47,3.0,13.0,85,0.00,,,0.00,WeatherCatV1.10B1784,2013-03-25 04:16:00,
2013-03-25 00:21:00,33.6,29.9,29.55,ESE,110,2.0,9.0,86,0.00,,,0.00,WeatherCatV1.10B1784,2013-03-25 04:21:00,
2013-03-25 00:26:00,33.5,29.8,29.55,East,82,5.0,9.0,86,0.00,,,0.00,WeatherCatV1.10B1784,2013-03-25 04:26:00,
2013-03-25 00:31:00,33.3,29.9,29.55,East,101,11.0,11.0,87,0.00,,,0.00,WeatherCatV1.10B1784,2013-03-25 04:31:00,
2013-03-25 00:36:00,33.2,30.0,29.55,ESE,122,3.0,15.0,88,0.00,,,0.00,WeatherCatV1.10B1784,2013-03-25 04:36:00,
2013-03-25 00:41:00,33.0,30.1,29.55,ESE,114,7.0,9.0,89,0.00,,,0.00,WeatherCatV1.10B1784,2013-03-25 04:41:00,
2013-03-25 00:46:00,32.8,30.2,29.55,East,79,6.0,8.0,90,0.00,,,0.00,WeatherCatV1.10B1784,2013-03-25 04:46:00,
2013-03-25 00:51:00,32.6,30.3,29.55,NE,53,5.0,8.0,91,0.00,,,0.00,WeatherCatV1.10B1784,2013-03-25 04:51:00,
2013-03-25 00:56:00,32.4,30.3,29.55,ESE,103,2.0,14.0,92,0.00,,,0.00,WeatherCatV1.10B1784,2013-03-25 04:56:00,
2013-03-25 01:01:00,32.3,30.2,29.55,ESE,102,2.0,5.0,92,0.00,,,0.00,WeatherCatV1.10B1784,2013-03-25 05:01:00,
2013-03-25 01:06:00,32.1,30.3,29.54,ESE,117,6.0,10.0,93,0.00,,,0.00,WeatherCatV1.10B1784,2013-03-25 05:06:00,
2013-03-25 01:12:00,32.1,30.3,29.54,ENE,75,4.0,6.0,93,0.00,,,0.00,WeatherCatV1.10B1784,2013-03-25 05:12:00,
2013-03-25 01:17:00,32.0,30.5,29.54,SE,141,8.0,9.0,94,0.00,,,0.00,WeatherCatV1.10B1784,2013-03-25 05:17:00,
2013-03-25 01:22:00,32.0,30.5,29.54,East,89,2.0,6.0,94,0.00,,,0.00,WeatherCatV1.10B1784,2013-03-25 05:22:00,
2013-03-25 01:27:00,31.9,30.4,29.54,East,84,3.0,7.0,94,0.00,,,0.00,WeatherCatV1.10B1784,2013-03-25 05:27:00,
2013-03-25 01:32:00,31.9,30.4,29.54,SE,126,5.0,10.0,94,0.00,,,0.00,WeatherCatV1.10B1784,2013-03-25 05:32:00,
2013-03-25 01:37:00,31.8,30.3,29.54,East,100,3.0,4.0,94,0.00,,,0.00,WeatherCatV1.10B1784,2013-03-25 05:37:00,
2013-03-25 01:42:00,31.8,30.3,29.54,East,96,4.0,4.0,94,0.00,,,0.00,WeatherCatV1.10B1784,2013-03-25 05:42:00,
2013-03-25 01:47:00,31.8,30.3,29.54,SE,131,4.0,5.0,94,0.00,,,0.00,WeatherCatV1.10B1784,2013-03-25 05:47:00,
2013-03-25 01:52:00,31.8,30.5,29.54,ESE,106,4.0,7.0,95,0.00,,,0.00,WeatherCatV1.10B1784,2013-03-25 05:52:00,
2013-03-25 01:57:00,31.8,30.5,29.54,ESE,106,5.0,10.0,95,0.00,,,0.00,WeatherCatV1.10B1784,2013-03-25 05:57:00,
2013-03-25 02:02:00,31.7,30.4,29.54,East,98,5.0,9.0,95,0.00,,,0.00,WeatherCatV1.10B1784,2013-03-25 06:02:00,
2013-03-25 02:07:00,31.7,30.4,29.54,East,100,8.0,9.0,95,0.00,,,0.00,WeatherCatV1.10B1784,2013-03-25 06:07:00,
2013-03-25 02:12:00,31.7,30.4,29.53,ESE,103,2.0,6.0,95,0.00,,,0.00,WeatherCatV1.10B1784,2013-03-25 06:12:00,
2013-03-25 02:17:00,31.7,30.4,29.53,SE,131,4.0,6.0,95,0.00,,,0.00,WeatherCatV1.10B1784,2013-03-25 06:17:00,
2013-03-25 02:22:00,31.7,30.4,29.53,East,98,6.0,8.0,95,0.00,,,0.00,WeatherCatV1.10B1784,2013-03-25 06:22:00,
2013-03-25 02:27:00,31.6,30.3,29.53,East,95,3.0,4.0,95,0.00,,,0.00,WeatherCatV1.10B1784,2013-03-25 06:27:00,
2013-03-25 02:32:00,31.6,30.3,29.53,ENE,78,4.0,8.0,95,0.00,,,0.00,WeatherCatV1.10B1784,2013-03-25 06:32:00,
2013-03-25 02:37:00,31.6,30.3,29.53,SE,134,4.0,7.0,95,0.00,,,0.00,WeatherCatV1.10B1784,2013-03-25 06:37:00,
2013-03-25 02:42:00,31.6,30.3,29.53,SE,134,4.0,6.0,95,0.00,,,0.00,WeatherCatV1.10B1784,2013-03-25 06:42:00,
2013-03-25 02:47:00,31.6,30.3,29.53,ESE,120,3.0,6.0,95,0.00,,,0.00,WeatherCatV1.10B1784,2013-03-25 06:47:00,
2013-03-25 02:52:00,31.6,30.3,29.52,ESE,106,3.0,4.0,95,0.00,,,0.00,WeatherCatV1.10B1784,2013-03-25 06:52:00,
2013-03-25 02:57:00,31.6,30.3,29.52,East,92,3.0,5.0,95,0.00,,,0.00,WeatherCatV1.10B1784,2013-03-25 06:57:00,
2013-03-25 03:02:00,31.5,30.2,29.52,East,86,4.0,7.0,95,0.00,,,0.00,WeatherCatV1.10B1784,2013-03-25 07:02:00,
2013-03-25 03:07:00,31.5,30.2,29.52,ESE,102,2.0,6.0,95,0.00,,,0.00,WeatherCatV1.10B1784,2013-03-25 07:07:00,
2013-03-25 03:12:00,31.5,30.5,29.52,East,95,3.0,6.0,96,0.00,,,0.00,WeatherCatV1.10B1784,2013-03-25 07:12:00,
2013-03-25 03:17:00,31.5,30.5,29.52,SE,132,2.0,6.0,96,0.00,,,0.00,WeatherCatV1.10B1784,2013-03-25 07:17:00,
2013-03-25 03:22:00,31.5,30.5,29.51,ESE,115,7.0,9.0,96,0.00,,,0.00,WeatherCatV1.10B1784,2013-03-25 07:22:00,
2013-03-25 03:27:00,31.4,30.4,29.51,ESE,122,6.0,9.0,96,0.00,,,0.00,WeatherCatV1.10B1784,2013-03-25 07:27:00,
2013-03-25 03:32:00,31.4,30.4,29.51,SE,137,2.0,6.0,96,0.00,,,0.00,WeatherCatV1.10B1784,2013-03-25 07:32:00,
2013-03-25 03:37:00,31.4,30.4,29.51,ESE,113,10.0,10.0,96,0.00,,,0.00,WeatherCatV1.10B1784,2013-03-25 07:37:00,
2013-03-25 03:42:00,31.4,30.4,29.50,East,96,5.0,9.0,96,0.00,,,0.00,WeatherCatV1.10B1784,2013-03-25 07:42:00,
2013-03-25 03:47:00,31.4,30.4,29.50,East,96,5.0,9.0,96,0.00,,,0.00,WeatherCatV1.10B1784,2013-03-25 07:47:00,
2013-03-25 03:52:00,31.4,30.4,29.50,ESE,115,5.0,14.0,96,0.00,,,0.00,WeatherCatV1.10B1784,2013-03-25 07:52:00,
2013-03-25 03:57:00,31.4,30.4,29.50,East,79,6.0,6.0,96,0.00,,,0.00,WeatherCatV1.10B1784,2013-03-25 07:57:00,
2013-03-25 04:02:00,31.4,30.4,29.50,ESE,113,8.0,11.0,96,0.00,,,0.00,WeatherCatV1.10B1784,2013-03-25 08:02:00,
2013-03-25 04:07:00,31.4,30.4,29.49,East,91,4.0,9.0,96,0.00,,,0.00,WeatherCatV1.10B1784,2013-03-25 08:07:00,
2013-03-25 04:12:00,31.4,30.4,29.49,ESE,114,4.0,9.0,96,0.00,,,0.00,WeatherCatV1.10B1784,2013-03-25 08:12:00,
2013-03-25 04:17:00,31.4,30.4,29.49,SE,143,2.0,7.0,96,0.00,,,0.00,WeatherCatV1.10B1784,2013-03-25 08:17:00,
2013-03-25 04:22:00,31.4,30.4,29.49,SE,128,4.0,12.0,96,0.00,,,0.00,WeatherCatV1.10B1784,2013-03-25 08:22:00,
2013-03-25 04:27:00,31.4,30.4,29.49,ESE,109,5.0,14.0,96,0.00,,,0.00,WeatherCatV1.10B1784,2013-03-25 08:27:00,
2013-03-25 04:32:00,31.3,30.3,29.49,ESE,114,5.0,7.0,96,0.00,,,0.00,WeatherCatV1.10B1784,2013-03-25 08:32:00,
2013-03-25 04:37:00,31.3,30.3,29.49,ESE,110,6.0,10.0,96,0.00,,,0.00,WeatherCatV1.10B1784,2013-03-25 08:37:00,
2013-03-25 04:42:00,31.3,30.3,29.49,East,84,3.0,10.0,96,0.00,,,0.00,WeatherCatV1.10B1784,2013-03-25 08:42:00,
2013-03-25 04:47:00,31.3,30.3,29.48,East,93,6.0,10.0,96,0.00,,,0.00,WeatherCatV1.10B1784,2013-03-25 08:47:00,
2013-03-25 04:52:00,31.3,30.3,29.48,ESE,104,7.0,7.0,96,0.00,,,0.00,WeatherCatV1.10B1784,2013-03-25 08:52:00,
2013-03-25 04:57:00,31.3,30.3,29.48,SE,124,5.0,9.0,96,0.00,,,0.00,WeatherCatV1.10B1784,2013-03-25 08:57:00,
2013-03-25 05:02:00,31.2,30.2,29.48,ESE,114,4.0,8.0,96,0.00,,,0.00,WeatherCatV1.10B1784,2013-03-25 09:02:00,
2013-03-25 05:07:00,31.2,30.2,29.48,ESE,120,4.0,7.0,96,0.00,,,0.00,WeatherCatV1.10B1784,2013-03-25 09:07:00,
2013-03-25 05:12:00,31.2,30.2,29.48,ESE,116,2.0,7.0,96,0.00,,,0.00,WeatherCatV1.10B1784,2013-03-25 09:12:00,
2013-03-25 05:17:00,31.2,30.2,29.47,ESE,109,5.0,7.0,96,0.00,,,0.00,WeatherCatV1.10B1784,2013-03-25 09:17:00,
2013-03-25 05:22:00,31.2,30.2,29.47,East,99,6.0,7.0,96,0.00,,,0.00,WeatherCatV1.10B1784,2013-03-25 09:22:00,
2013-03-25 05:27:00,31.2,30.2,29.47,East,99,6.0,8.0,96,0.00,,,0.00,WeatherCatV1.10B1784,2013-03-25 09:27:00,
2013-03-25 05:32:00,31.2,30.2,29.47,ESE,110,4.0,5.0,96,0.00,,,0.00,WeatherCatV1.10B1784,2013-03-25 09:32:00,
2013-03-25 05:37:00,31.2,30.2,29.47,SE,143,3.0,5.0,96,0.00,,,0.00,WeatherCatV1.10B1784,2013-03-25 09:37:00,
2013-03-25 05:42:00,31.2,30.2,29.47,SE,129,8.0,8.0,96,0.00,,,0.00,WeatherCatV1.10B1784,2013-03-25 09:42:00,
2013-03-25 05:47:00,31.2,30.2,29.47,ESE,122,6.0,6.0,96,0.00,,,0.00,WeatherCatV1.10B1784,2013-03-25 09:47:00,
2013-03-25 05:52:00,31.2,30.2,29.47,East,96,6.0,8.0,96,0.00,,,0.00,WeatherCatV1.10B1784,2013-03-25 09:52:00,
2013-03-25 05:57:00,31.2,30.2,29.47,East,86,5.0,8.0,96,0.00,,,0.00,WeatherCatV1.10B1784,2013-03-25 09:57:00,
2013-03-25 06:02:00,31.2,30.2,29.47,East,85,3.0,10.0,96,0.00,,,0.00,WeatherCatV1.10B1784,2013-03-25 10:02:00,
2013-03-25 06:07:00,31.2,30.2,29.47,ESE,122,5.0,9.0,96,0.00,,,0.00,WeatherCatV1.10B1784,2013-03-25 10:07:00,
2013-03-25 06:12:00,31.2,30.2,29.47,ESE,117,4.0,4.0,96,0.00,,,0.00,WeatherCatV1.10B1784,2013-03-25 10:12:00,
2013-03-25 06:17:00,31.2,30.2,29.47,SE,131,4.0,5.0,96,0.00,,,0.00,WeatherCatV1.10B1784,2013-03-25 10:17:00,
2013-03-25 06:22:00,31.1,30.1,29.47,East,97,8.0,9.0,96,0.00,,,0.00,WeatherCatV1.10B1784,2013-03-25 10:22:00,
2013-03-25 06:27:00,31.2,30.2,29.47,SE,125,5.0,8.0,96,0.00,,,0.00,WeatherCatV1.10B1784,2013-03-25 10:27:00,
2013-03-25 06:32:00,31.1,30.1,29.47,ESE,122,3.0,6.0,96,0.00,,,0.00,WeatherCatV1.10B1784,2013-03-25 10:32:00,
2013-03-25 06:37:00,31.1,30.1,29.47,ENE,62,6.0,6.0,96,0.00,,,0.00,WeatherCatV1.10B1784,2013-03-25 10:37:00,
2013-03-25 06:42:00,31.1,30.1,29.47,SE,142,1.0,4.0,96,0.00,,,0.00,WeatherCatV1.10B1784,2013-03-25 10:42:00,
2013-03-25 06:47:00,31.2,30.2,29.47,ESE,105,0.0,3.0,96,0.00,,,0.00,WeatherCatV1.10B1784,2013-03-25 10:47:00,
2013-03-25 06:52:00,31.1,30.1,29.47,ESE,113,4.0,7.0,96,0.00,,,0.00,WeatherCatV1.10B1784,2013-03-25 10:52:00,
2013-03-25 06:57:00,31.1,30.1,29.47,ESE,113,1.0,2.0,96,0.00,,,0.00,WeatherCatV1.10B1784,2013-03-25 10:57:00,
2013-03-25 07:02:00,31.1,30.1,29.47,ESE,103,2.0,2.0,96,0.00,,,0.00,WeatherCatV1.10B1784,2013-03-25 11:02:00,
2013-03-25 07:07:00,31.1,30.1,29.47,ENE,65,2.0,4.0,96,0.00,,,0.00,WeatherCatV1.10B1784,2013-03-25 11:07:00,
2013-03-25 07:12:00,31.1,30.1,29.47,ENE,67,1.0,3.0,96,0.00,,,0.00,WeatherCatV1.10B1784,2013-03-25 11:12:00,
2013-03-25 07:17:00,31.1,30.1,29.47,ESE,113,3.0,3.0,96,0.00,,,0.00,WeatherCatV1.10B1784,2013-03-25 11:17:00,
2013-03-25 07:22:00,31.1,30.1,29.47,ESE,113,2.0,6.0,96,0.00,,,0.00,WeatherCatV1.10B1784,2013-03-25 11:22:00,
2013-03-25 07:27:00,31.1,30.1,29.47,ESE,120,3.0,3.0,96,0.00,,,0.00,WeatherCatV1.10B1784,2013-03-25 11:27:00,
2013-03-25 07:32:00,31.1,30.4,29.47,ESE,113,3.0,5.0,97,0.00,,,0.00,WeatherCatV1.10B1784,2013-03-25 11:32:00,
2013-03-25 07:37:00,31.1,30.4,29.47,SE,129,3.0,3.0,97,0.00,,,0.00,WeatherCatV1.10B1784,2013-03-25 11:37:00,
2013-03-25 07:42:00,31.1,30.4,29.47,SE,138,2.0,4.0,97,0.00,,,0.00,WeatherCatV1.10B1784,2013-03-25 11:42:00,
2013-03-25 07:47:00,31.1,30.4,29.47,ESE,122,1.0,2.0,97,0.00,,,0.00,WeatherCatV1.10B1784,2013-03-25 11:47:00,
2013-03-25 07:52:00,31.1,30.4,29.47,ESE,113,2.0,4.0,97,0.00,,,0.00,WeatherCatV1.10B1784,2013-03-25 11:52:00,
2013-03-25 07:57:00,31.1,30.4,29.47,ESE,112,2.0,3.0,97,0.00,,,0.00,WeatherCatV1.10B1784,2013-03-25 11:57:00,
2013-03-25 08:02:00,31.2,30.5,29.47,ESE,116,1.0,2.0,97,0.00,,,0.00,WeatherCatV1.10B1784,2013-03-25 12:02:00,
2013-03-25 08:07:00,31.2,30.5,29.47,East,84,1.0,4.0,97,0.00,,,0.00,WeatherCatV1.10B1784,2013-03-25 12:07:00,
2013-03-25 08:12:00,31.2,30.5,29.47,ESE,113,2.0,2.0,97,0.00,,,0.00,WeatherCatV1.10B1784,2013-03-25 12:12:00,
2013-03-25 08:17:00,31.3,30.5,29.48,East,95,2.0,2.0,97,0.00,,,0.00,WeatherCatV1.10B1784,2013-03-25 12:17:00,
2013-03-25 08:22:00,31.3,30.5,29.47,SSE,147,2.0,2.0,97,0.00,,,0.00,WeatherCatV1.10B1784,2013-03-25 12:22:00,
2013-03-25 08:27:00,31.3,30.5,29.47,East,81,1.0,3.0,97,0.00,,,0.00,WeatherCatV1.10B1784,2013-03-25 12:27:00,
2013-03-25 08:32:00,31.3,30.5,29.47,ESE,105,0.0,2.0,97,0.00,,,0.00,WeatherCatV1.10B1784,2013-03-25 12:32:00,
2013-03-25 08:37:00,31.4,30.6,29.48,ESE,113,3.0,4.0,97,0.00,,,0.00,WeatherCatV1.10B1784,2013-03-25 12:37:00,
2013-03-25 08:42:00,31.4,30.6,29.48,ESE,111,3.0,3.0,97,0.00,,,0.00,WeatherCatV1.10B1784,2013-03-25 12:42:00,
2013-03-25 08:47:00,31.4,30.6,29.48,ESE,108,3.0,4.0,97,0.00,,,0.00,WeatherCatV1.10B1784,2013-03-25 12:47:00,
2013-03-25 08:52:00,31.4,30.6,29.48,ESE,112,2.0,3.0,97,0.00,,,0.00,WeatherCatV1.10B1784,2013-03-25 12:52:00,
2013-03-25 08:57:00,31.5,30.7,29.48,ESE,110,1.0,3.0,97,0.00,,,0.00,WeatherCatV1.10B1784,2013-03-25 12:57:00,
2013-03-25 09:02:00,31.5,30.7,29.48,East,93,1.0,1.0,97,0.00,,,0.00,WeatherCatV1.10B1784,2013-03-25 13:02:00,
2013-03-25 09:07:00,31.6,30.8,29.48,ESE,110,1.0,3.0,97,0.00,,,0.00,WeatherCatV1.10B1784,2013-03-25 13:07:00,
2013-03-25 09:12:00,31.6,30.8,29.48,ENE,74,2.0,4.0,97,0.00,,,0.00,WeatherCatV1.10B1784,2013-03-25 13:12:00,
2013-03-25 09:17:00,31.7,30.9,29.48,ESE,117,1.0,1.0,97,0.00,,,0.00,WeatherCatV1.10B1784,2013-03-25 13:17:00,
2013-03-25 09:22:00,31.7,30.9,29.48,ESE,117,3.0,4.0,97,0.00,,,0.00,WeatherCatV1.10B1784,2013-03-25 13:22:00,
2013-03-25 09:27:00,31.8,31.0,29.48,ESE,103,2.0,3.0,97,0.00,,,0.00,WeatherCatV1.10B1784,2013-03-25 13:27:00,
2013-03-25 09:32:00,31.8,31.0,29.48,ESE,113,1.0,1.0,97,0.00,,,0.00,WeatherCatV1.10B1784,2013-03-25 13:32:00,
2013-03-25 09:37:00,31.8,31.0,29.48,East,79,0.0,3.0,97,0.00,,,0.00,WeatherCatV1.10B1784,2013-03-25 13:37:00,
2013-03-25 09:42:00,31.8,31.0,29.48,ESE,109,2.0,4.0,97,0.00,,,0.00,WeatherCatV1.10B1784,2013-03-25 13:42:00,
2013-03-25 09:47:00,31.8,31.0,29.48,ESE,123,1.0,1.0,97,0.00,,,0.00,WeatherCatV1.10B1784,2013-03-25 13:47:00,
2013-03-25 09:52:00,31.9,31.1,29.48,ESE,110,1.0,3.0,97,0.00,,,0.00,WeatherCatV1.10B1784,2013-03-25 13:52:00,
2013-03-25 09:58:00,31.9,31.1,29.48,SE,132,5.0,5.0,97,0.00,,,0.00,WeatherCatV1.10B1784,2013-03-25 13:58:00,
2013-03-25 10:03:00,32.0,31.2,29.48,SSE,153,1.0,3.0,97,0.00,,,0.00,WeatherCatV1.10B1784,2013-03-25 14:03:00,
2013-03-25 10:08:00,32.0,31.2,29.48,ESE,110,3.0,3.0,97,0.00,,,0.00,WeatherCatV1.10B1784,2013-03-25 14:08:00,
2013-03-25 10:13:00,32.1,31.3,29.48,ESE,110,3.0,4.0,97,0.00,,,0.00,WeatherCatV1.10B1784,2013-03-25 14:13:00,
2013-03-25 10:18:00,32.2,31.4,29.48,ESE,103,3.0,4.0,97,0.00,,,0.00,WeatherCatV1.10B1784,2013-03-25 14:18:00,
2013-03-25 10:23:00,32.2,31.4,29.48,SE,145,2.0,3.0,97,0.00,,,0.00,WeatherCatV1.10B1784,2013-03-25 14:23:00,
2013-03-25 10:28:00,32.3,31.3,29.48,ESE,106,2.0,3.0,96,0.00,,,0.00,WeatherCatV1.10B1784,2013-03-25 14:28:00,
2013-03-25 10:33:00,32.4,31.4,29.48,East,95,4.0,6.0,96,0.00,,,0.00,WeatherCatV1.10B1784,2013-03-25 14:33:00,
2013-03-25 10:38:00,32.4,31.4,29.48,ESE,103,2.0,4.0,96,0.00,,,0.00,WeatherCatV1.10B1784,2013-03-25 14:38:00,
2013-03-25 10:43:00,32.4,31.4,29.48,SE,129,1.0,5.0,96,0.00,,,0.00,WeatherCatV1.10B1784,2013-03-25 14:43:00,
2013-03-25 10:48:00,32.5,31.5,29.48,SE,139,1.0,2.0,96,0.00,,,0.00,WeatherCatV1.10B1784,2013-03-25 14:48:00,
2013-03-25 10:53:00,32.6,31.6,29.48,ESE,105,1.0,2.0,96,0.00,,,0.00,WeatherCatV1.10B1784,2013-03-25 14:53:00,
2013-03-25 10:58:00,32.7,31.7,29.49,East,79,2.0,2.0,96,0.00,,,0.00,WeatherCatV1.10B1784,2013-03-25 14:58:00,
2013-03-25 11:03:00,32.7,31.7,29.49,ESE,120,2.0,3.0,96,0.00,,,0.00,WeatherCatV1.10B1784,2013-03-25 15:03:00,
2013-03-25 11:08:00,32.7,31.7,29.49,SE,125,1.0,3.0,96,0.00,,,0.00,WeatherCatV1.10B1784,2013-03-25 15:08:00,
2013-03-25 11:13:00,32.7,31.7,29.49,ESE,109,2.0,2.0,96,0.00,,,0.00,WeatherCatV1.10B1784,2013-03-25 15:13:00,
2013-03-25 11:18:00,32.8,31.8,29.49,SE,131,0.0,3.0,96,0.00,,,0.00,WeatherCatV1.10B1784,2013-03-25 15:18:00,
2013-03-25 11:23:00,32.9,31.9,29.49,East,95,2.0,3.0,96,0.00,,,0.00,WeatherCatV1.10B1784,2013-03-25 15:23:00,
2013-03-25 11:28:00,32.9,31.9,29.49,ESE,116,3.0,4.0,96,0.00,,,0.00,WeatherCatV1.10B1784,2013-03-25 15:28:00,
2013-03-25 11:33:00,32.9,31.9,29.49,ESE,105,0.0,2.0,96,0.00,,,0.00,WeatherCatV1.10B1784,2013-03-25 15:33:00,
2013-03-25 11:38:00,33.0,32.0,29.49,East,89,0.0,4.0,96,0.00,,,0.00,WeatherCatV1.10B1784,2013-03-25 15:38:00,
2013-03-25 11:43:00,33.3,32.3,29.49,East,89,0.0,1.0,96,0.00,,,0.00,WeatherCatV1.10B1784,2013-03-25 15:43:00,
2013-03-25 11:48:00,33.5,32.7,29.49,East,89,0.0,0.0,97,0.00,,,0.00,WeatherCatV1.10B1784,2013-03-25 15:48:00,
2013-03-25 11:53:00,33.5,32.5,29.50,SSE,147,1.0,2.0,96,0.00,,,0.00,WeatherCatV1.10B1784,2013-03-25 15:53:00,
2013-03-25 11:58:00,33.5,32.5,29.50,SE,141,3.0,4.0,96,0.00,,,0.00,WeatherCatV1.10B1784,2013-03-25 15:58:00,
2013-03-25 12:03:00,33.3,32.3,29.50,SE,132,2.0,4.0,96,0.00,,,0.00,WeatherCatV1.10B1784,2013-03-25 16:03:00,
2013-03-25 12:08:00,33.4,32.4,29.50,SE,130,1.0,5.0,96,0.00,,,0.00,WeatherCatV1.10B1784,2013-03-25 16:08:00,
2013-03-25 12:13:00,33.6,32.6,29.50,ESE,116,1.0,3.0,96,0.00,,,0.00,WeatherCatV1.10B1784,2013-03-25 16:13:00,
2013-03-25 12:18:00,33.9,32.9,29.50,ESE,113,1.0,4.0,96,0.00,,,0.00,WeatherCatV1.10B1784,2013-03-25 16:18:00,
2013-03-25 12:23:00,34.4,33.4,29.50,ESE,111,2.0,2.0,96,0.00,,,0.00,WeatherCatV1.10B1784,2013-03-25 16:23:00,
2013-03-25 12:28:00,34.9,33.9,29.50,ESE,120,1.0,1.0,96,0.00,,,0.00,WeatherCatV1.10B1784,2013-03-25 16:28:00,
2013-03-25 12:33:00,35.3,34.3,29.50,ESE,122,1.0,2.0,96,0.00,,,0.00,WeatherCatV1.10B1784,2013-03-25 16:33:00,
2013-03-25 12:38:00,35.3,34.0,29.51,East,101,2.0,2.0,95,0.00,,,0.00,WeatherCatV1.10B1784,2013-03-25 16:38:00,
2013-03-25 12:43:00,35.1,33.8,29.50,ESE,122,0.0,1.0,95,0.00,,,0.00,WeatherCatV1.10B1784,2013-03-25 16:43:00,
2013-03-25 12:48:00,35.3,34.0,29.51,SE,141,0.0,1.0,95,0.00,,,0.00,WeatherCatV1.10B1784,2013-03-25 16:48:00,
2013-03-25 12:53:00,35.3,34.0,29.50,ESE,110,1.0,1.0,95,0.00,,,0.00,WeatherCatV1.10B1784,2013-03-25 16:53:00,
2013-03-25 12:58:00,35.4,34.1,29.51,ESE,123,0.0,1.0,95,0.00,,,0.00,WeatherCatV1.10B1784,2013-03-25 16:58:00,
2013-03-25 13:03:00,35.5,34.2,29.51,SE,125,1.0,2.0,95,0.00,,,0.00,WeatherCatV1.10B1784,2013-03-25 17:03:00,
2013-03-25 13:08:00,35.6,34.3,29.51,SSE,166,2.0,2.0,95,0.00,,,0.00,WeatherCatV1.10B1784,2013-03-25 17:08:00,
2013-03-25 13:13:00,35.7,34.4,29.51,SSE,150,1.0,2.0,95,0.00,,,0.00,WeatherCatV1.10B1784,2013-03-25 17:13:00,
2013-03-25 13:18:00,35.5,34.2,29.51,South,175,1.0,3.0,95,0.00,,,0.00,WeatherCatV1.10B1784,2013-03-25 17:18:00,
2013-03-25 13:23:00,35.6,34.3,29.51,South,176,2.0,2.0,95,0.00,,,0.00,WeatherCatV1.10B1784,2013-03-25 17:23:00,
2013-03-25 13:28:00,35.7,34.4,29.51,SW,224,0.0,2.0,95,0.00,,,0.00,WeatherCatV1.10B1784,2013-03-25 17:28:00,
2013-03-25 13:33:00,35.9,34.6,29.51,South,183,1.0,1.0,95,0.00,,,0.00,WeatherCatV1.10B1784,2013-03-25 17:33:00,
2013-03-25 13:38:00,36.0,34.7,29.51,SW,232,0.0,1.0,95,0.00,,,0.00,WeatherCatV1.10B1784,2013-03-25 17:38:00,
2013-03-25 13:43:00,36.3,35.0,29.51,SW,235,3.0,4.0,95,0.00,,,0.00,WeatherCatV1.10B1784,2013-03-25 17:43:00,
2013-03-25 13:48:00,36.1,34.5,29.51,SW,222,2.0,3.0,94,0.00,,,0.00,WeatherCatV1.10B1784,2013-03-25 17:48:00,
2013-03-25 13:53:00,35.9,34.1,29.51,SW,235,3.0,6.0,93,0.00,,,0.00,WeatherCatV1.10B1784,2013-03-25 17:53:00,
2013-03-25 13:58:00,36.0,34.4,29.51,SW,216,2.0,2.0,94,0.00,,,0.00,WeatherCatV1.10B1784,2013-03-25 17:58:00,
2013-03-25 14:03:00,35.8,34.2,29.51,WSW,252,1.0,4.0,94,0.00,,,0.00,WeatherCatV1.10B1784,2013-03-25 18:03:00,
2013-03-25 14:08:00,35.8,34.2,29.51,West,260,6.0,7.0,94,0.00,,,0.00,WeatherCatV1.10B1784,2013-03-25 18:08:00,
2013-03-25 14:13:00,35.5,33.7,29.51,WSW,255,5.0,6.0,93,0.00,,,0.00,WeatherCatV1.10B1784,2013-03-25 18:13:00,
2013-03-25 14:18:00,35.4,33.8,29.51,WSW,243,6.0,6.0,94,0.00,,,0.00,WeatherCatV1.10B1784,2013-03-25 18:18:00,
2013-03-25 14:23:00,35.3,33.7,29.52,WSW,256,4.0,5.0,94,0.00,,,0.00,WeatherCatV1.10B1784,2013-03-25 18:23:00,
2013-03-25 14:28:00,35.3,33.7,29.52,WSW,240,7.0,7.0,94,0.00,,,0.00,WeatherCatV1.10B1784,2013-03-25 18:28:00,
2013-03-25 14:33:00,35.4,33.8,29.51,West,261,6.0,9.0,94,0.00,,,0.00,WeatherCatV1.10B1784,2013-03-25 18:33:00,
2013-03-25 14:38:00,35.5,33.9,29.51,WSW,250,1.0,6.0,94,0.00,,,0.00,WeatherCatV1.10B1784,2013-03-25 18:38:00,
2013-03-25 14:43:00,35.6,33.8,29.51,West,273,4.0,10.0,93,0.00,,,0.00,WeatherCatV1.10B1784,2013-03-25 18:43:00,
2013-03-25 14:48:00,35.6,33.8,29.52,West,274,3.0,6.0,93,0.00,,,0.00,WeatherCatV1.10B1784,2013-03-25 18:48:00,
2013-03-25 14:53:00,35.9,34.1,29.51,WSW,257,6.0,7.0,93,0.00,,,0.00,WeatherCatV1.10B1784,2013-03-25 18:53:00,
2013-03-25 14:58:00,35.9,33.8,29.52,West,276,3.0,7.0,92,0.00,,,0.01,WeatherCatV1.10B1784,2013-03-25 18:58:00,
2013-03-25 15:03:00,36.1,34.0,29.52,West,271,2.0,7.0,92,0.12,,,0.02,WeatherCatV1.10B1784,2013-03-25 19:03:00,
2013-03-25 15:08:00,36.2,34.1,29.52,SW,232,3.0,6.0,92,0.11,,,0.03,WeatherCatV1.10B1784,2013-03-25 19:08:00,
2013-03-25 15:13:00,36.3,34.2,29.52,WSW,238,2.0,5.0,92,0.12,,,0.04,WeatherCatV1.10B1784,2013-03-25 19:13:00,
2013-03-25 15:18:00,36.2,34.1,29.52,WSW,247,4.0,4.0,92,0.11,,,0.05,WeatherCatV1.10B1784,2013-03-25 19:18:00,
2013-03-25 15:23:00,35.9,33.8,29.52,WSW,250,3.0,6.0,92,0.10,,,0.06,WeatherCatV1.10B1784,2013-03-25 19:23:00,
2013-03-25 15:28:00,35.6,33.5,29.52,West,261,2.0,4.0,92,0.10,,,0.07,WeatherCatV1.10B1784,2013-03-25 19:28:00,
2013-03-25 15:33:00,35.5,33.7,29.52,WSW,252,4.0,5.0,93,0.10,,,0.07,WeatherCatV1.10B1784,2013-03-25 19:33:00,
2013-03-25 15:38:00,35.5,33.7,29.53,WSW,257,3.0,5.0,93,0.10,,,0.08,WeatherCatV1.10B1784,2013-03-25 19:38:00,
2013-03-25 15:43:00,35.5,33.7,29.53,WSW,240,4.0,8.0,93,0.12,,,0.09,WeatherCatV1.10B1784,2013-03-25 19:43:00,
2013-03-25 15:48:00,35.7,33.9,29.53,WSW,244,2.0,5.0,93,0.11,,,0.10,WeatherCatV1.10B1784,2013-03-25 19:48:00,
2013-03-25 15:53:00,35.8,34.0,29.53,WNW,283,3.0,5.0,93,0.11,,,0.11,WeatherCatV1.10B1784,2013-03-25 19:53:00,
2013-03-25 15:58:00,35.9,34.1,29.53,West,281,1.0,3.0,93,0.11,,,0.12,WeatherCatV1.10B1784,2013-03-25 19:58:00,
2013-03-25 16:03:00,36.2,34.4,29.53,West,267,3.0,5.0,93,0.10,,,0.13,WeatherCatV1.10B1784,2013-03-25 20:03:00,
2013-03-25 16:08:00,36.3,34.5,29.53,SW,235,2.0,4.0,93,0.11,,,0.14,WeatherCatV1.10B1784,2013-03-25 20:08:00,
2013-03-25 16:13:00,36.3,34.2,29.54,West,277,3.0,6.0,92,0.10,,,0.15,WeatherCatV1.10B1784,2013-03-25 20:13:00,
2013-03-25 16:18:00,36.3,34.2,29.54,West,280,2.0,4.0,92,0.10,,,0.15,WeatherCatV1.10B1784,2013-03-25 20:18:00,
2013-03-25 16:23:00,36.3,34.2,29.54,West,272,3.0,7.0,92,0.10,,,0.16,WeatherCatV1.10B1784,2013-03-25 20:23:00,
2013-03-25 16:28:00,36.3,34.2,29.55,WSW,238,3.0,6.0,92,0.09,,,0.17,WeatherCatV1.10B1784,2013-03-25 20:28:00,
2013-03-25 16:33:00,36.1,34.0,29.55,West,279,3.0,6.0,92,0.10,,,0.18,WeatherCatV1.10B1784,2013-03-25 20:33:00,
2013-03-25 16:38:00,36.1,34.0,29.55,WSW,242,5.0,6.0,92,0.09,,,0.18,WeatherCatV1.10B1784,2013-03-25 20:38:00,
2013-03-25 16:43:00,36.0,33.9,29.55,West,270,3.0,6.0,92,0.09,,,0.19,WeatherCatV1.10B1784,2013-03-25 20:43:00,
2013-03-25 16:48:00,36.0,33.9,29.55,WSW,250,1.0,3.0,92,0.09,,,0.20,WeatherCatV1.10B1784,2013-03-25 20:48:00,
2013-03-25 16:53:00,36.2,34.1,29.55,West,267,4.0,6.0,92,0.08,,,0.20,WeatherCatV1.10B1784,2013-03-25 20:53:00,
2013-03-25 16:58:00,36.2,34.1,29.55,West,260,3.0,5.0,92,0.07,,,0.21,WeatherCatV1.10B1784,2013-03-25 20:58:00,
2013-03-25 17:03:00,36.2,34.1,29.56,West,259,3.0,4.0,92,0.07,,,0.22,WeatherCatV1.10B1784,2013-03-25 21:03:00,
2013-03-25 17:08:00,36.1,34.0,29.56,WSW,238,6.0,7.0,92,0.07,,,0.22,WeatherCatV1.10B1784,2013-03-25 21:08:00,
2013-03-25 17:13:00,36.0,34.2,29.56,West,260,3.0,5.0,93,0.07,,,0.23,WeatherCatV1.10B1784,2013-03-25 21:13:00,
2013-03-25 17:18:00,35.8,34.0,29.56,SW,224,4.0,6.0,93,0.07,,,0.23,WeatherCatV1.10B1784,2013-03-25 21:18:00,
2013-03-25 17:23:00,35.6,33.8,29.56,WSW,253,3.0,5.0,93,0.06,,,0.24,WeatherCatV1.10B1784,2013-03-25 21:23:00,
2013-03-25 17:28:00,35.5,33.7,29.57,West,262,4.0,4.0,93,0.06,,,0.24,WeatherCatV1.10B1784,2013-03-25 21:28:00,
2013-03-25 17:33:00,35.4,33.6,29.57,West,260,2.0,6.0,93,0.07,,,0.25,WeatherCatV1.10B1784,2013-03-25 21:33:00,
2013-03-25 17:38:00,35.4,33.6,29.57,West,266,4.0,5.0,93,0.07,,,0.25,WeatherCatV1.10B1784,2013-03-25 21:38:00,
2013-03-25 17:43:00,35.4,33.8,29.57,West,274,1.0,3.0,94,0.07,,,0.26,WeatherCatV1.10B1784,2013-03-25 21:43:00,
2013-03-25 17:48:00,35.5,33.9,29.58,WSW,238,2.0,2.0,94,0.06,,,0.27,WeatherCatV1.10B1784,2013-03-25 21:48:00,
2013-03-25 17:53:00,35.5,33.9,29.58,WSW,252,2.0,2.0,94,0.06,,,0.27,WeatherCatV1.10B1784,2013-03-25 21:53:00,
2013-03-25 17:58:00,35.5,33.9,29.58,WSW,248,1.0,1.0,94,0.06,,,0.28,WeatherCatV1.10B1784,2013-03-25 21:58:00,
2013-03-25 18:03:00,35.5,33.9,29.58,WSW,242,0.0,1.0,94,0.06,,,0.28,WeatherCatV1.10B1784,2013-03-25 22:03:00,
2013-03-25 18:08:00,35.3,33.7,29.59,West,264,2.0,3.0,94,0.07,,,0.29,WeatherCatV1.10B1784,2013-03-25 22:08:00,
2013-03-25 18:13:00,35.2,33.6,29.59,WSW,245,1.0,3.0,94,0.07,,,0.29,WeatherCatV1.10B1784,2013-03-25 22:13:00,
2013-03-25 18:18:00,35.2,33.6,29.59,West,260,1.0,3.0,94,0.05,,,0.29,WeatherCatV1.10B1784,2013-03-25 22:18:00,
2013-03-25 18:23:00,35.1,33.5,29.59,WSW,253,2.0,3.0,94,0.05,,,0.30,WeatherCatV1.10B1784,2013-03-25 22:23:00,
2013-03-25 18:28:00,35.0,33.5,29.60,West,262,2.0,3.0,94,0.05,,,0.30,WeatherCatV1.10B1784,2013-03-25 22:28:00,
2013-03-25 18:33:00,34.9,33.4,29.60,WNW,287,0.0,3.0,94,0.05,,,0.31,WeatherCatV1.10B1784,2013-03-25 22:33:00,
2013-03-25 18:38:00,34.8,33.3,29.60,WSW,248,2.0,3.0,94,0.05,,,0.31,WeatherCatV1.10B1784,2013-03-25 22:38:00,
2013-03-25 18:43:00,34.7,33.2,29.60,WSW,255,2.0,3.0,94,0.05,,,0.31,WeatherCatV1.10B1784,2013-03-25 22:43:00,
2013-03-25 18:48:00,34.6,33.1,29.60,WSW,248,1.0,3.0,94,0.04,,,0.32,WeatherCatV1.10B1784,2013-03-25 22:48:00,
2013-03-25 18:53:00,34.5,33.2,29.61,WSW,252,1.0,2.0,95,0.04,,,0.32,WeatherCatV1.10B1784,2013-03-25 22:53:00,
2013-03-25 18:58:00,34.5,33.2,29.61,WSW,255,1.0,2.0,95,0.04,,,0.32,WeatherCatV1.10B1784,2013-03-25 22:58:00,
2013-03-25 19:03:00,34.5,33.2,29.61,WSW,240,2.0,2.0,95,0.04,,,0.33,WeatherCatV1.10B1784,2013-03-25 23:03:00,
2013-03-25 19:08:00,34.5,33.2,29.62,SW,219,0.0,1.0,95,0.04,,,0.33,WeatherCatV1.10B1784,2013-03-25 23:08:00,
2013-03-25 19:13:00,34.5,33.2,29.62,West,264,1.0,1.0,95,0.04,,,0.33,WeatherCatV1.10B1784,2013-03-25 23:13:00,
2013-03-25 19:18:00,34.3,33.0,29.62,West,266,1.0,1.0,95,0.00,,,0.33,WeatherCatV1.10B1784,2013-03-25 23:18:00,
2013-03-25 19:23:00,34.2,32.9,29.63,West,263,1.0,2.0,95,0.00,,,0.34,WeatherCatV1.10B1784,2013-03-25 23:23:00,
2013-03-25 19:28:00,34.1,32.8,29.63,WSW,246,1.0,1.0,95,0.00,,,0.34,WeatherCatV1.10B1784,2013-03-25 23:28:00,
2013-03-25 19:33:00,33.9,32.6,29.63,WSW,257,2.0,2.0,95,0.00,,,0.34,WeatherCatV1.10B1784,2013-03-25 23:33:00,
2013-03-25 19:38:00,33.9,32.6,29.64,WSW,255,1.0,1.0,95,0.00,,,0.34,WeatherCatV1.10B1784,2013-03-25 23:38:00,
2013-03-25 19:43:00,33.9,32.6,29.64,West,280,0.0,2.0,95,0.00,,,0.35,WeatherCatV1.10B1784,2013-03-25 23:43:00,
2013-03-25 19:48:00,33.9,32.9,29.64,WNW,297,1.0,1.0,96,0.00,,,0.35,WeatherCatV1.10B1784,2013-03-25 23:48:00,
2013-03-25 19:54:00,33.9,32.9,29.64,WSW,248,0.0,1.0,96,0.00,,,0.35,WeatherCatV1.10B1784,2013-03-25 23:54:00,
2013-03-25 19:59:00,33.8,32.5,29.65,WSW,255,0.0,1.0,95,0.00,,,0.35,WeatherCatV1.10B1784,2013-03-25 23:59:00,
2013-03-25 20:04:00,33.8,32.8,29.65,West,267,0.0,1.0,96,0.00,,,0.35,WeatherCatV1.10B1784,2013-03-26 00:04:00,
2013-03-25 20:09:00,33.8,32.8,29.65,SW,215,1.0,2.0,96,0.00,,,0.35,WeatherCatV1.10B1784,2013-03-26 00:09:00,
2013-03-25 20:14:00,33.7,32.7,29.65,WSW,246,1.0,1.0,96,0.00,,,0.35,WeatherCatV1.10B1784,2013-03-26 00:14:00,
2013-03-25 20:19:00,33.7,32.7,29.65,WSW,255,0.0,1.0,96,0.00,,,0.35,WeatherCatV1.10B1784,2013-03-26 00:19:00,
2013-03-25 20:24:00,33.8,32.8,29.66,West,267,1.0,1.0,96,0.00,,,0.35,WeatherCatV1.10B1784,2013-03-26 00:24:00,
2013-03-25 20:29:00,33.7,32.7,29.66,West,269,0.0,1.0,96,0.00,,,0.36,WeatherCatV1.10B1784,2013-03-26 00:29:00,
2013-03-25 20:34:00,33.7,32.7,29.66,West,269,0.0,1.0,96,0.00,,,0.36,WeatherCatV1.10B1784,2013-03-26 00:34:00,
2013-03-25 20:39:00,33.6,32.6,29.67,West,269,0.0,0.0,96,0.00,,,0.36,WeatherCatV1.10B1784,2013-03-26 00:39:00,
2013-03-25 20:44:00,33.6,32.6,29.67,WNW,291,0.0,1.0,96,0.00,,,0.36,WeatherCatV1.10B1784,2013-03-26 00:44:00,
2013-03-25 20:49:00,33.5,32.5,29.67,NE,40,1.0,2.0,96,0.00,,,0.36,WeatherCatV1.10B1784,2013-03-26 00:49:00,
2013-03-25 20:54:00,33.3,32.3,29.67,NNE,23,2.0,3.0,96,0.00,,,0.36,WeatherCatV1.10B1784,2013-03-26 00:54:00,
2013-03-25 20:59:00,33.2,32.2,29.68,NNE,13,0.0,0.0,96,0.00,,,0.36,WeatherCatV1.10B1784,2013-03-26 00:59:00,
2013-03-25 21:04:00,33.1,32.1,29.68,NE,55,0.0,1.0,96,0.00,,,0.36,WeatherCatV1.10B1784,2013-03-26 01:04:00,
2013-03-25 21:09:00,33.1,32.1,29.68,NE,41,0.0,1.0,96,0.00,,,0.36,WeatherCatV1.10B1784,2013-03-26 01:09:00,
2013-03-25 21:14:00,33.0,32.0,29.68,NNE,19,2.0,2.0,96,0.00,,,0.36,WeatherCatV1.10B1784,2013-03-26 01:14:00,
2013-03-25 21:19:00,33.0,32.0,29.68,NNE,16,1.0,2.0,96,0.00,,,0.36,WeatherCatV1.10B1784,2013-03-26 01:19:00,
2013-03-25 21:24:00,33.1,32.1,29.69,NNE,15,2.0,3.0,96,0.00,,,0.36,WeatherCatV1.10B1784,2013-03-26 01:24:00,
2013-03-25 21:29:00,33.1,32.1,29.69,NNE,13,2.0,2.0,96,0.00,,,0.36,WeatherCatV1.10B1784,2013-03-26 01:29:00,
2013-03-25 21:34:00,33.1,32.1,29.69,NNE,27,2.0,2.0,96,0.00,,,0.36,WeatherCatV1.10B1784,2013-03-26 01:34:00,
2013-03-25 21:39:00,33.1,32.1,29.69,North,5,2.0,2.0,96,0.00,,,0.36,WeatherCatV1.10B1784,2013-03-26 01:39:00,
2013-03-25 21:44:00,33.1,32.1,29.70,NNE,13,2.0,2.0,96,0.00,,,0.36,WeatherCatV1.10B1784,2013-03-26 01:44:00,
2013-03-25 21:49:00,33.1,32.1,29.70,NNE,23,3.0,4.0,96,0.00,,,0.36,WeatherCatV1.10B1784,2013-03-26 01:49:00,
2013-03-25 21:54:00,33.1,32.1,29.70,NNW,348,1.0,4.0,96,0.00,,,0.36,WeatherCatV1.10B1784,2013-03-26 01:54:00,
2013-03-25 21:59:00,33.1,32.1,29.71,NNW,347,1.0,2.0,96,0.00,,,0.36,WeatherCatV1.10B1784,2013-03-26 01:59:00,
2013-03-25 22:04:00,33.2,32.2,29.71,NNW,347,1.0,3.0,96,0.00,,,0.37,WeatherCatV1.10B1784,2013-03-26 02:04:00,
2013-03-25 22:09:00,33.2,32.2,29.71,North,1,2.0,3.0,96,0.00,,,0.37,WeatherCatV1.10B1784,2013-03-26 02:09:00,
2013-03-25 22:14:00,33.3,32.3,29.71,NNE,19,2.0,6.0,96,0.00,,,0.37,WeatherCatV1.10B1784,2013-03-26 02:14:00,
2013-03-25 22:19:00,33.3,32.3,29.71,NNW,342,0.0,2.0,96,0.00,,,0.37,WeatherCatV1.10B1784,2013-03-26 02:19:00,
2013-03-25 22:24:00,33.3,32.3,29.72,North,4,2.0,4.0,96,0.00,,,0.37,WeatherCatV1.10B1784,2013-03-26 02:24:00,
2013-03-25 22:29:00,33.3,32.3,29.72,NNE,29,1.0,4.0,96,0.00,,,0.37,WeatherCatV1.10B1784,2013-03-26 02:29:00,
2013-03-25 22:34:00,33.3,32.3,29.72,NNW,327,0.0,0.0,96,0.00,,,0.37,WeatherCatV1.10B1784,2013-03-26 02:34:00,
2013-03-25 22:39:00,33.3,32.3,29.72,NNW,347,1.0,4.0,96,0.00,,,0.37,WeatherCatV1.10B1784,2013-03-26 02:39:00,
2013-03-25 22:44:00,33.3,32.3,29.72,North,1,2.0,2.0,96,0.00,,,0.37,WeatherCatV1.10B1784,2013-03-26 02:44:00,
2013-03-25 22:49:00,33.3,32.3,29.73,NNE,18,0.0,2.0,96,0.00,,,0.37,WeatherCatV1.10B1784,2013-03-26 02:49:00,
2013-03-25 22:54:00,33.3,32.3,29.73,NE,39,0.0,3.0,96,0.00,,,0.37,WeatherCatV1.10B1784,2013-03-26 02:54:00,
2013-03-25 22:59:00,33.3,32.3,29.73,North,349,2.0,4.0,96,0.00,,,0.37,WeatherCatV1.10B1784,2013-03-26 02:59:00,
2013-03-25 23:04:00,33.3,32.3,29.73,NNE,28,2.0,3.0,96,0.00,,,0.37,WeatherCatV1.10B1784,2013-03-26 03:04:00,
2013-03-25 23:09:00,33.3,32.3,29.73,North,357,2.0,2.0,96,0.00,,,0.37,WeatherCatV1.10B1784,2013-03-26 03:09:00,
2013-03-25 23:14:00,33.3,32.3,29.73,North,356,3.0,4.0,96,0.00,,,0.38,WeatherCatV1.10B1784,2013-03-26 03:14:00,
2013-03-25 23:19:00,33.3,32.3,29.74,North,351,1.0,4.0,96,0.00,,,0.38,WeatherCatV1.10B1784,2013-03-26 03:19:00,
2013-03-25 23:24:00,33.3,32.3,29.74,NNW,331,2.0,2.0,96,0.00,,,0.38,WeatherCatV1.10B1784,2013-03-26 03:24:00,
2013-03-25 23:29:00,33.3,32.3,29.74,NNE,18,1.0,3.0,96,0.00,,,0.38,WeatherCatV1.10B1784,2013-03-26 03:29:00,
2013-03-25 23:34:00,33.3,32.3,29.74,NNE,13,2.0,2.0,96,0.00,,,0.38,WeatherCatV1.10B1784,2013-03-26 03:34:00,
2013-03-25 23:39:00,33.3,32.3,29.74,NNE,17,2.0,2.0,96,0.00,,,0.38,WeatherCatV1.10B1784,2013-03-26 03:39:00,
2013-03-25 23:44:00,33.3,32.3,29.74,NW,324,1.0,1.0,96,0.00,,,0.38,WeatherCatV1.10B1784,2013-03-26 03:44:00,
2013-03-25 23:49:00,33.3,32.3,29.75,North,8,0.0,2.0,96,0.00,,,0.38,WeatherCatV1.10B1784,2013-03-26 03:49:00,
2013-03-25 23:54:00,33.3,32.3,29.75,NNW,342,1.0,3.0,96,0.00,,,0.38,WeatherCatV1.10B1784,2013-03-26 03:54:00,
2013-03-25 23:59:00,33.3,32.3,29.75,North,354,1.0,1.0,96,0.00,,,0.38,WeatherCatV1.10B1784,2013-03-26 03:59:00,